| time (UTC) | temp F | wind direction | speed MPH | gust MPH | rain 1hr in | rain 24hr in | rain mn in | humidity % | barometer mb |
| 20260503184230 | 57 | 336 | 3.0 | 8.0 | 0.00 | 0.00 | 0.00 | 41 | 1015.8 |
| 20260503183726 | 58 | 274 | 3.0 | 9.0 | 0.00 | 0.00 | 0.00 | 40 | 1015.8 |
| 20260503183223 | 59 | 322 | 2.0 | 4.0 | 0.00 | 0.00 | 0.00 | 43 | 1015.8 |
| 20260503182721 | 59 | 356 | 2.0 | 2.0 | 0.00 | 0.00 | 0.00 | 39 | 1015.8 |
| 20260503182220 | 58 | 271 | 2.0 | 10.0 | 0.00 | 0.00 | 0.00 | 41 | 1015.9 |
| 20260503181716 | 59 | 286 | 3.0 | 7.0 | 0.00 | 0.00 | 0.00 | 40 | 1015.9 |
| 20260503181213 | 59 | 315 | 3.0 | 4.0 | 0.00 | 0.00 | 0.00 | 40 | 1016.0 |
| 20260503180709 | 57 | 321 | 4.0 | 7.0 | 0.00 | 0.00 | 0.00 | 39 | 1016.1 |
| 20260503180208 | 58 | 78 | 4.0 | 6.0 | 0.00 | 0.00 | 0.00 | 40 | 1016.2 |
| 20260503175704 | 57 | 208 | 3.0 | 4.0 | 0.00 | 0.00 | 0.00 | 40 | 1016.4 |
| 20260503175202 | 57 | 296 | 2.0 | 6.0 | 0.00 | 0.00 | 0.00 | 42 | 1016.5 |
| 20260503174658 | 58 | 320 | 4.0 | 6.0 | 0.00 | 0.00 | 0.00 | 42 | 1016.4 |
| 20260503174156 | 57 | 289 | 4.0 | 6.0 | 0.00 | 0.00 | 0.00 | 39 | 1016.4 |
| 20260503173651 | 57 | 127 | 3.0 | 9.0 | 0.00 | 0.00 | 0.00 | 40 | 1016.5 |
| 20260503173147 | 57 | 340 | 4.0 | 7.0 | 0.00 | 0.00 | 0.00 | 40 | 1016.5 |
| 20260503172644 | 56 | 329 | 2.0 | 4.0 | 0.00 | 0.00 | 0.00 | 42 | 1016.4 |
| 20260503172141 | 56 | 27 | 3.0 | 4.0 | 0.00 | 0.00 | 0.00 | 44 | 1016.6 |
| 20260503171637 | 55 | 28 | 3.0 | 3.0 | 0.00 | 0.00 | 0.00 | 43 | 1016.7 |
| 20260503171135 | 54 | 321 | 4.0 | 9.0 | 0.00 | 0.00 | 0.00 | 44 | 1016.7 |
| 20260503170632 | 55 | 156 | 2.0 | 7.0 | 0.00 | 0.00 | 0.00 | 44 | 1016.7 |
| 20260503170129 | 56 | 293 | 2.0 | 7.0 | 0.00 | 0.00 | 0.00 | 44 | 1016.9 |
| 20260503150520 | 52 | 277 | 5.0 | 7.0 | 0.00 | 0.00 | 0.00 | 45 | 1017.7 |
| 20260503131413 | 47 | 62 | 0.0 | 3.0 | 0.00 | 0.00 | 0.00 | 68 | 1018.4 |
| 20260503130910 | 47 | 124 | 0.0 | 2.0 | 0.00 | 0.00 | 0.00 | 67 | 1018.4 |
| 20260503130408 | 46 | 49 | 1.0 | 2.0 | 0.00 | 0.00 | 0.00 | 70 | 1018.3 |
| 20260503110811 | 30 | 99 | 0.0 | 0.0 | 0.00 | 0.00 | 0.00 | 99 | 1017.9 |
| 20260503110308 | 30 | 97 | 0.0 | 1.0 | 0.00 | 0.00 | 0.00 | 99 | 1017.8 |
| 20260503100234 | 30 | 71 | 0.0 | 0.0 | 0.00 | 0.00 | 0.00 | 99 | 1017.2 |
| 20260503090200 | 30 | 102 | 0.0 | 0.0 | 0.00 | 0.00 | 0.00 | 99 | 1017.1 |
| 20260503081636 | 30 | 90 | 0.0 | 0.0 | 0.00 | 0.00 | 0.00 | 99 | 1017.1 |
| 20260503081132 | 30 | 90 | 0.0 | 0.0 | 0.00 | 0.00 | 0.00 | 99 | 1017.2 |
| 20260503080628 | 30 | 90 | 0.0 | 0.0 | 0.00 | 0.00 | 0.00 | 99 | 1017.4 |
| 20260503080125 | 31 | 90 | 0.0 | 0.0 | 0.00 | 0.00 | 0.00 | 99 | 1017.2 |
| 20260503072602 | 32 | 90 | 0.0 | 0.0 | 0.00 | 0.00 | 0.00 | 99 | 1016.9 |
| 20260503072059 | 32 | 90 | 0.0 | 0.0 | 0.00 | 0.00 | 0.00 | 99 | 1016.8 |
| 20260503071556 | 32 | 90 | 0.0 | 0.0 | 0.00 | 0.00 | 0.00 | 99 | 1017.0 |
| 20260503071053 | 32 | 84 | 0.0 | 0.0 | 0.00 | 0.00 | 0.00 | 99 | 1017.0 |
| 20260503070549 | 33 | 83 | 0.0 | 0.0 | 0.00 | 0.00 | 0.00 | 99 | 1017.1 |
| 20260503055003 | 34 | 73 | 0.0 | 0.0 | 0.00 | 0.00 | 0.00 | 99 | 1017.2 |
| 20260503054459 | 35 | 86 | 0.0 | 0.0 | 0.00 | 0.00 | 0.00 | 99 | 1017.3 |
| 20260503053956 | 34 | 61 | 0.0 | 0.0 | 0.00 | 0.00 | 0.00 | 98 | 1017.1 |
| 20260503053454 | 34 | 61 | 0.0 | 0.0 | 0.00 | 0.00 | 0.00 | 98 | 1017.1 |
| 20260503052951 | 34 | 72 | 0.0 | 0.0 | 0.00 | 0.00 | 0.00 | 98 | 1017.1 |
| 20260503052448 | 34 | 55 | 0.0 | 0.0 | 0.00 | 0.00 | 0.00 | 98 | 1017.3 |
| 20260503051944 | 34 | 51 | 0.0 | 0.0 | 0.00 | 0.00 | 0.00 | 99 | 1017.2 |
| 20260503051440 | 34 | 57 | 0.0 | 0.0 | 0.00 | 0.00 | 0.00 | 99 | 1017.3 |
| 20260503050937 | 34 | 73 | 0.0 | 0.0 | 0.00 | 0.00 | 0.00 | 98 | 1017.3 |
| 20260503050433 | 34 | 73 | 0.0 | 0.0 | 0.00 | 0.00 | 0.00 | 98 | 1017.3 |
| 20260503045931 | 34 | 83 | 0.0 | 0.0 | 0.00 | 0.00 | 0.00 | 98 | 1017.3 |
| 20260503045428 | 35 | 83 | 0.0 | 0.0 | 0.00 | 0.00 | 0.00 | 98 | 1017.4 |
| 20260503044925 | 35 | 83 | 0.0 | 0.0 | 0.00 | 0.00 | 0.00 | 98 | 1017.3 |
| 20260503044422 | 35 | 90 | 0.0 | 0.0 | 0.00 | 0.00 | 0.00 | 98 | 1017.3 |
| 20260503043920 | 35 | 87 | 0.0 | 0.0 | 0.00 | 0.00 | 0.00 | 98 | 1017.4 |
| 20260503043416 | 35 | 102 | 0.0 | 0.0 | 0.00 | 0.00 | 0.00 | 98 | 1017.5 |
| 20260503042912 | 35 | 104 | 0.0 | 0.0 | 0.00 | 0.00 | 0.00 | 98 | 1017.5 |
| 20260503042409 | 34 | 74 | 0.0 | 0.0 | 0.00 | 0.00 | 0.00 | 98 | 1017.5 |
| 20260503041905 | 34 | 33 | 0.0 | 0.0 | 0.00 | 0.00 | 0.00 | 98 | 1017.5 |
| 20260503041402 | 34 | 80 | 0.0 | 0.0 | 0.00 | 0.00 | 0.00 | 98 | 1017.4 |
| 20260503040900 | 34 | 79 | 0.0 | 0.0 | 0.00 | 0.00 | 0.00 | 98 | 1017.5 |
| 20260503040357 | 34 | 48 | 0.0 | 0.0 | 0.00 | 0.09 | 0.09 | 98 | 1017.4 |
| 20260503035854 | 34 | 64 | 0.0 | 0.0 | 0.00 | 0.09 | 0.09 | 98 | 1017.6 |
| 20260503035351 | 34 | 54 | 0.0 | 0.0 | 0.00 | 0.09 | 0.09 | 98 | 1017.5 |
| 20260503034848 | 34 | 63 | 0.0 | 0.0 | 0.00 | 0.09 | 0.09 | 98 | 1017.4 |
| 20260503034346 | 34 | 63 | 0.0 | 0.0 | 0.00 | 0.09 | 0.09 | 98 | 1017.5 |
| 20260503033843 | 33 | 63 | 0.0 | 0.0 | 0.00 | 0.09 | 0.09 | 98 | 1017.4 |
| 20260503033340 | 34 | 63 | 0.0 | 0.0 | 0.00 | 0.09 | 0.09 | 97 | 1017.5 |
| 20260503032838 | 34 | 63 | 0.0 | 0.0 | 0.00 | 0.09 | 0.09 | 97 | 1017.4 |
| 20260503032337 | 34 | 63 | 0.0 | 0.0 | 0.00 | 0.09 | 0.09 | 97 | 1017.5 |
| 20260503031834 | 34 | 66 | 0.0 | 0.0 | 0.00 | 0.09 | 0.09 | 96 | 1017.5 |
| 20260503031331 | 34 | 67 | 0.0 | 0.0 | 0.00 | 0.09 | 0.09 | 95 | 1017.4 |
| 20260503030828 | 35 | 67 | 0.0 | 0.0 | 0.00 | 0.09 | 0.09 | 95 | 1017.4 |
| 20260503030324 | 35 | 67 | 0.0 | 0.0 | 0.00 | 0.09 | 0.09 | 95 | 1017.4 |
| 20260503025821 | 35 | 93 | 0.0 | 0.0 | 0.00 | 0.09 | 0.09 | 94 | 1017.7 |
| 20260503025319 | 35 | 94 | 0.0 | 0.0 | 0.00 | 0.09 | 0.09 | 93 | 1017.6 |
| 20260503024815 | 36 | 94 | 0.0 | 0.0 | 0.00 | 0.09 | 0.09 | 93 | 1017.6 |
| 20260503024312 | 37 | 90 | 0.0 | 0.0 | 0.00 | 0.09 | 0.09 | 93 | 1017.6 |
| 20260503023809 | 37 | 90 | 0.0 | 0.0 | 0.00 | 0.09 | 0.09 | 92 | 1017.6 |
| 20260503023306 | 38 | 90 | 0.0 | 0.0 | 0.00 | 0.09 | 0.09 | 92 | 1017.6 |
| 20260503022803 | 38 | 91 | 0.0 | 0.0 | 0.00 | 0.09 | 0.09 | 90 | 1017.5 |
| 20260503022304 | 38 | 109 | 0.0 | 0.0 | 0.00 | 0.09 | 0.09 | 91 | 1017.5 |
| 20260503021759 | 38 | 102 | 0.0 | 0.0 | 0.00 | 0.09 | 0.09 | 89 | 1017.5 |
| 20260503021255 | 38 | 112 | 0.0 | 0.0 | 0.00 | 0.09 | 0.09 | 90 | 1017.7 |
| 20260503020754 | 38 | 87 | 0.0 | 0.0 | 0.00 | 0.09 | 0.09 | 90 | 1017.8 |
| 20260503020251 | 38 | 69 | 0.0 | 0.0 | 0.00 | 0.09 | 0.09 | 89 | 1017.6 |
| 20260503015747 | 38 | 69 | 0.0 | 0.0 | 0.00 | 0.09 | 0.09 | 89 | 1017.7 |
| 20260503015244 | 39 | 82 | 0.0 | 0.0 | 0.00 | 0.09 | 0.09 | 89 | 1017.6 |
| 20260503014739 | 39 | 84 | 0.0 | 0.0 | 0.00 | 0.09 | 0.09 | 87 | 1017.5 |
| 20260503014238 | 39 | 84 | 0.0 | 0.0 | 0.00 | 0.09 | 0.09 | 87 | 1017.7 |
| 20260503013735 | 39 | 85 | 0.0 | 0.0 | 0.00 | 0.09 | 0.09 | 86 | 1017.4 |
| 20260503013232 | 39 | 83 | 0.0 | 0.0 | 0.00 | 0.09 | 0.09 | 85 | 1017.6 |
| 20260503012730 | 39 | 83 | 0.0 | 0.0 | 0.00 | 0.09 | 0.09 | 86 | 1017.6 |
| 20260503012226 | 39 | 84 | 0.0 | 0.0 | 0.00 | 0.09 | 0.09 | 85 | 1017.5 |
| 20260503011723 | 39 | 94 | 0.0 | 0.0 | 0.00 | 0.09 | 0.09 | 84 | 1017.6 |
| 20260503011220 | 39 | 91 | 0.0 | 0.0 | 0.00 | 0.09 | 0.09 | 83 | 1017.6 |
| 20260503010716 | 40 | 95 | 0.0 | 0.0 | 0.00 | 0.09 | 0.09 | 84 | 1017.6 |
| 20260503010213 | 40 | 92 | 0.0 | 0.0 | 0.00 | 0.09 | 0.09 | 82 | 1017.3 |
| 20260503005711 | 40 | 87 | 0.0 | 0.0 | 0.00 | 0.09 | 0.09 | 81 | 1017.4 |
| 20260503005208 | 40 | 97 | 0.0 | 0.0 | 0.00 | 0.09 | 0.09 | 82 | 1017.4 |
| 20260503004704 | 41 | 135 | 0.0 | 0.0 | 0.00 | 0.09 | 0.09 | 80 | 1017.4 |
| 20260503004203 | 41 | 50 | 0.0 | 1.0 | 0.00 | 0.09 | 0.09 | 78 | 1017.4 |
| 20260503003659 | 41 | 2 | 0.0 | 1.0 | 0.00 | 0.09 | 0.09 | 75 | 1017.2 |
| 20260503003156 | 41 | 340 | 1.0 | 2.0 | 0.00 | 0.09 | 0.09 | 74 | 1017.2 |
| 20260503002653 | 41 | 352 | 1.0 | 2.0 | 0.00 | 0.09 | 0.09 | 74 | 1017.2 |
| 20260503002150 | 41 | 348 | 0.0 | 1.0 | 0.00 | 0.09 | 0.09 | 76 | 1017.0 |
| 20260503001646 | 41 | 44 | 0.0 | 2.0 | 0.00 | 0.09 | 0.09 | 74 | 1017.1 |
| 20260503001143 | 42 | 71 | 0.0 | 0.0 | 0.00 | 0.09 | 0.09 | 77 | 1017.0 |
| 20260503000641 | 42 | 60 | 0.0 | 0.0 | 0.00 | 0.09 | 0.09 | 76 | 1017.1 |
| 20260503000137 | 42 | 55 | 0.0 | 0.0 | 0.00 | 0.09 | 0.09 | 73 | 1016.9 |
| 20260502235634 | 42 | 289 | 0.0 | 1.0 | 0.00 | 0.09 | 0.09 | 73 | 1017.1 |
| 20260502235133 | 42 | 351 | 0.0 | 1.0 | 0.00 | 0.09 | 0.09 | 73 | 1017.0 |
| 20260502234628 | 42 | 317 | 0.0 | 2.0 | 0.00 | 0.09 | 0.09 | 70 | 1016.8 |
| 20260502234126 | 42 | 350 | 0.0 | 1.0 | 0.00 | 0.09 | 0.09 | 71 | 1016.9 |
| 20260502233621 | 42 | 42 | 0.0 | 1.0 | 0.00 | 0.09 | 0.09 | 71 | 1016.9 |
| 20260502233118 | 43 | 313 | 2.0 | 3.0 | 0.00 | 0.09 | 0.09 | 71 | 1016.8 |
| 20260502232614 | 43 | 42 | 1.0 | 2.0 | 0.00 | 0.09 | 0.09 | 71 | 1016.8 |
| 20260502232112 | 43 | 356 | 0.0 | 0.0 | 0.00 | 0.09 | 0.09 | 72 | 1016.7 |
| 20260502231608 | 43 | 302 | 0.0 | 0.0 | 0.00 | 0.09 | 0.09 | 71 | 1016.9 |
| 20260502231106 | 43 | 359 | 0.0 | 0.0 | 0.00 | 0.09 | 0.09 | 70 | 1016.8 |
| 20260502230604 | 43 | 55 | 0.0 | 2.0 | 0.00 | 0.09 | 0.09 | 72 | 1016.8 |
| 20260502225557 | 43 | 326 | 2.0 | 2.0 | 0.00 | 0.09 | 0.09 | 71 | 1016.9 |
| 20260502225055 | 43 | 319 | 1.0 | 3.0 | 0.00 | 0.09 | 0.09 | 70 | 1016.7 |
| 20260502224551 | 43 | 295 | 0.0 | 1.0 | 0.00 | 0.09 | 0.09 | 71 | 1017.0 |
| 20260502224048 | 43 | 295 | 1.0 | 2.0 | 0.00 | 0.09 | 0.09 | 72 | 1016.9 |
| 20260502223546 | 43 | 315 | 0.0 | 1.0 | 0.00 | 0.09 | 0.09 | 71 | 1016.9 |
| 20260502223044 | 43 | 314 | 2.0 | 2.0 | 0.00 | 0.09 | 0.09 | 73 | 1016.8 |
| 20260502222541 | 43 | 28 | 0.0 | 4.0 | 0.00 | 0.09 | 0.09 | 74 | 1016.8 |
| 20260502222037 | 43 | 8 | 0.0 | 1.0 | 0.00 | 0.09 | 0.09 | 77 | 1016.6 |
| 20260502221533 | 43 | 343 | 2.0 | 2.0 | 0.00 | 0.09 | 0.09 | 75 | 1016.9 |
| 20260502221031 | 43 | 248 | 1.0 | 2.0 | 0.00 | 0.09 | 0.09 | 74 | 1016.7 |
| 20260502220526 | 43 | 317 | 1.0 | 2.0 | 0.00 | 0.09 | 0.09 | 76 | 1016.9 |
| 20260502220023 | 43 | 294 | 1.0 | 2.0 | 0.00 | 0.09 | 0.09 | 76 | 1016.9 |
| 20260502215520 | 43 | 317 | 2.0 | 3.0 | 0.00 | 0.09 | 0.09 | 76 | 1017.0 |
| 20260502215017 | 43 | 311 | 0.0 | 2.0 | 0.00 | 0.09 | 0.09 | 76 | 1017.0 |
| 20260502214514 | 43 | 348 | 1.0 | 2.0 | 0.00 | 0.09 | 0.09 | 76 | 1016.8 |
| 20260502214012 | 43 | 350 | 1.0 | 3.0 | 0.00 | 0.09 | 0.09 | 76 | 1016.8 |
| 20260502213508 | 43 | 17 | 0.0 | 1.0 | 0.00 | 0.09 | 0.09 | 77 | 1016.6 |
| 20260502213006 | 43 | 341 | 0.0 | 3.0 | 0.00 | 0.09 | 0.09 | 75 | 1016.9 |
| 20260502212505 | 43 | 337 | 2.0 | 2.0 | 0.00 | 0.09 | 0.09 | 75 | 1016.8 |
| 20260502212001 | 43 | 87 | 0.0 | 2.0 | 0.00 | 0.09 | 0.09 | 77 | 1016.6 |
| 20260502211457 | 43 | 345 | 1.0 | 2.0 | 0.00 | 0.09 | 0.09 | 77 | 1016.7 |
| 20260502210955 | 43 | 326 | 2.0 | 3.0 | 0.00 | 0.09 | 0.09 | 75 | 1016.7 |
| 20260502210451 | 43 | 332 | 1.0 | 3.0 | 0.00 | 0.09 | 0.09 | 77 | 1016.6 |
| 20260502205949 | 43 | 328 | 3.0 | 7.0 | 0.00 | 0.09 | 0.09 | 73 | 1016.6 |
| 20260502205445 | 44 | 287 | 2.0 | 4.0 | 0.00 | 0.09 | 0.09 | 72 | 1016.4 |
| 20260502204942 | 44 | 13 | 3.0 | 4.0 | 0.00 | 0.09 | 0.09 | 74 | 1016.5 |
| 20260502204439 | 44 | 328 | 1.0 | 4.0 | 0.00 | 0.09 | 0.09 | 75 | 1016.5 |
| 20260502203937 | 43 | 75 | 1.0 | 3.0 | 0.00 | 0.09 | 0.09 | 72 | 1016.5 |
| 20260502203434 | 44 | 305 | 1.0 | 2.0 | 0.00 | 0.09 | 0.09 | 74 | 1016.5 |
| 20260502202930 | 44 | 310 | 1.0 | 6.0 | 0.00 | 0.09 | 0.09 | 76 | 1016.6 |
| 20260502202427 | 43 | 329 | 1.0 | 3.0 | 0.00 | 0.09 | 0.09 | 77 | 1016.8 |
| 20260502201925 | 43 | 51 | 1.0 | 4.0 | 0.00 | 0.09 | 0.09 | 74 | 1016.6 |
| 20260502201421 | 43 | 352 | 2.0 | 3.0 | 0.00 | 0.09 | 0.09 | 73 | 1016.6 |
| 20260502200918 | 43 | 4 | 1.0 | 8.0 | 0.00 | 0.09 | 0.09 | 73 | 1016.7 |
| 20260502200413 | 43 | 316 | 3.0 | 6.0 | 0.00 | 0.09 | 0.09 | 73 | 1016.8 |
| 20260502195912 | 42 | 295 | 2.0 | 6.0 | 0.00 | 0.09 | 0.09 | 73 | 1016.9 |
| 20260502195408 | 42 | 316 | 4.0 | 6.0 | 0.00 | 0.09 | 0.09 | 75 | 1016.9 |
| 20260502194905 | 42 | 325 | 1.0 | 4.0 | 0.00 | 0.09 | 0.09 | 78 | 1016.9 |
| 20260502194401 | 42 | 308 | 3.0 | 6.0 | 0.00 | 0.09 | 0.09 | 79 | 1017.0 |
| 20260502193857 | 42 | 300 | 6.0 | 7.0 | 0.00 | 0.09 | 0.09 | 80 | 1016.8 |
| 20260502193355 | 43 | 328 | 4.0 | 7.0 | 0.00 | 0.09 | 0.09 | 81 | 1016.9 |
| 20260502192850 | 43 | 322 | 3.0 | 6.0 | 0.00 | 0.09 | 0.09 | 83 | 1017.0 |
| 20260502192347 | 43 | 325 | 6.0 | 8.0 | 0.00 | 0.09 | 0.09 | 81 | 1017.0 |
| 20260502191844 | 43 | 314 | 4.0 | 8.0 | 0.00 | 0.09 | 0.09 | 81 | 1016.9 |
| 20260502191342 | 43 | 321 | 2.0 | 4.0 | 0.00 | 0.09 | 0.09 | 79 | 1017.1 |
| 20260502190839 | 43 | 316 | 3.0 | 7.0 | 0.00 | 0.09 | 0.09 | 78 | 1016.9 |
| 20260502190337 | 43 | 339 | 2.0 | 6.0 | 0.00 | 0.09 | 0.09 | 78 | 1017.1 |
| 20260502185832 | 44 | 302 | 3.0 | 4.0 | 0.00 | 0.09 | 0.09 | 76 | 1017.1 |
| 20260502185328 | 44 | 9 | 1.0 | 2.0 | 0.00 | 0.09 | 0.09 | 77 | 1017.0 |
| 20260502184826 | 44 | 300 | 2.0 | 6.0 | 0.00 | 0.09 | 0.09 | 76 | 1016.9 |